FW7611 Weather Reports


Display with metric or nautical units.
time (UTC)temp
F
wind
direction
speed
MPH
gust
MPH
rain 1hr
in
rain 24hr
in
rain mn
in
humidity
%
barometer
mb
20260903064543 75 0 0.0 0.0 0.00 0.00 0.00 88 1019.5
20260903063041 75 0 0.0 0.0 0.00 0.00 0.00 89 1019.2
20260903061551 75 0 0.0 0.0 0.00 0.00 0.00 89 1019.5
20260903060046 75 0 0.0 0.0 0.00 0.00 0.00 89 1019.4
20260903054553 75 0 0.0 2.0 0.00 0.00 0.00 90 1019.3
20260903053051 75 0 0.0 0.0 0.00 0.00 0.00 91 1019.5
20260903051544 75 0 0.0 2.0 0.00 0.00 0.00 90 1019.6
20260903050052 75 0 0.0 0.0 0.00 0.00 0.00 89 1019.7
20260903044554 75 0 0.0 0.0 0.00 0.00 0.00 89 1019.8
20260903043047 75 0 0.0 0.0 0.00 0.00 0.00 88 1019.5
20260903041542 76 0 0.0 2.0 0.00 0.00 0.00 87 1019.6
20260903040049 77 0 0.0 2.0 0.00 0.00 0.00 85 1019.6
20260903034551 77 0 0.0 0.0 0.00 0.00 0.00 84 1019.5
20260903033047 78 0 0.0 0.0 0.00 0.00 0.00 83 1019.7
20260903031554 78 0 0.0 0.0 0.00 0.00 0.00 83 1019.8
20260903030054 78 0 0.0 2.0 0.00 0.00 0.00 85 1019.7
20260903024548 79 0 0.0 0.0 0.00 0.00 0.00 82 1019.9
20260903023047 79 0 0.0 0.0 0.00 0.00 0.00 83 1019.9
20260903021543 79 0 0.0 0.0 0.00 0.00 0.00 81 1020.0
20260903020052 80 0 0.0 0.0 0.00 0.00 0.00 79 1020.3
20260903014555 80 0 0.0 0.0 0.00 0.00 0.00 77 1020.2
20260903013044 81 0 0.0 0.0 0.00 0.00 0.00 75 1020.2
20260903011556 82 0 0.0 0.0 0.00 0.00 0.00 73 1019.9
20260903010050 82 0 0.0 0.0 0.00 0.00 0.00 72 1019.9
20260903004550 82 0 0.0 0.0 0.00 0.00 0.00 72 1019.8
20260903003046 83 0 0.0 0.0 0.00 0.00 0.00 71 1019.6
20260903001544 84 0 0.0 0.0 0.00 0.00 0.00 69 1019.6
20260903000047 84 0 0.0 0.0 0.00 0.00 0.00 68 1019.4
20260902234554 85 0 0.0 0.0 0.00 0.00 0.00 67 1019.5
20260902233042 87 0 0.0 0.0 0.00 0.00 0.00 65 1019.2
20260902231541 89 0 0.0 2.0 0.00 0.00 0.00 61 1019.3
20260902230050 90 0 0.0 2.0 0.00 0.00 0.00 58 1019.2
20260902224551 91 293 0.0 2.0 0.00 0.00 0.00 56 1019.1
20260902223046 92 293 0.0 2.0 0.00 0.00 0.00 54 1019.1
20260902221555 93 311 0.0 2.0 0.00 0.00 0.00 51 1019.3
20260902220053 93 296 0.0 2.0 0.00 0.00 0.00 51 1019.3
20260902214547 93 286 0.0 1.0 0.00 0.00 0.00 50 1019.2
20260902213048 94 0 0.0 3.0 0.00 0.00 0.00 46 1019.3
20260902211551 93 313 0.0 2.0 0.00 0.00 0.00 49 1019.3
20260902210049 93 238 0.0 2.0 0.00 0.00 0.00 47 1019.3
20260902204548 94 360 0.0 4.0 0.00 0.00 0.00 47 1019.4
20260902203058 94 0 0.0 3.0 0.00 0.00 0.00 47 1019.5
20260902201545 93 102 0.0 2.0 0.00 0.00 0.00 47 1019.5
20260902200055 94 24 1.0 2.0 0.00 0.00 0.00 47 1019.7
20260902194544 93 37 0.0 2.0 0.00 0.00 0.00 48 1019.8
20260902193042 94 19 1.0 2.0 0.00 0.00 0.00 47 1020.0
20260902191554 94 57 0.0 4.0 0.00 0.00 0.00 45 1020.0
20260902190049 95 319 0.0 4.0 0.00 0.00 0.00 46 1020.1
20260902184550 94 289 1.0 2.0 0.00 0.00 0.00 47 1020.4
20260902183041 94 331 2.0 4.0 0.00 0.00 0.00 46 1020.4
20260902181543 94 69 1.0 2.0 0.00 0.00 0.00 45 1020.5
20260902180042 94 19 1.0 3.0 0.00 0.00 0.00 46 1020.6
20260902174547 94 275 0.0 5.0 0.00 0.00 0.00 45 1020.6
20260902173049 94 185 1.0 4.0 0.00 0.00 0.00 46 1020.9
20260902171541 94 263 0.0 3.0 0.00 0.00 0.00 47 1021.0
20260902170049 95 180 0.0 2.0 0.00 0.00 0.00 48 1021.3
20260902164543 94 40 0.0 2.0 0.00 0.00 0.00 47 1021.6
20260902163057 92 131 2.0 6.0 0.00 0.00 0.00 50 1021.7
20260902161541 93 0 0.0 3.0 0.00 0.00 0.00 50 1021.9
20260902160048 92 296 1.0 4.0 0.00 0.00 0.00 54 1021.8
20260902154538 91 349 0.0 2.0 0.00 0.00 0.00 54 1021.9
20260902153042 90 80 1.0 2.0 0.00 0.00 0.00 56 1022.0
20260902151555 89 0 0.0 2.0 0.00 0.00 0.00 59 1022.0
20260902150046 89 167 0.0 4.0 0.00 0.00 0.00 59 1022.0
20260902144548 88 0 0.0 2.0 0.00 0.00 0.00 65 1021.8
20260902143042 87 256 0.0 2.0 0.00 0.00 0.00 65 1021.8
20260902141547 86 289 0.0 2.0 0.00 0.00 0.00 69 1021.8
20260902140047 83 323 0.0 2.0 0.00 0.00 0.00 72 1021.7
20260902134547 82 293 0.0 2.0 0.00 0.00 0.00 74 1021.7
20260902133040 81 141 0.0 2.0 0.00 0.00 0.00 76 1021.7
20260902131558 80 0 0.0 2.0 0.00 0.00 0.00 77 1021.6
20260902130047 78 312 0.0 2.0 0.00 0.00 0.00 78 1021.9
20260902124541 76 0 0.0 0.0 0.00 0.00 0.00 82 1022.0
20260902123106 76 0 0.0 2.0 0.00 0.00 0.00 82 1021.9
20260902121556 74 0 0.0 2.0 0.00 0.00 0.00 86 1021.7
20260902120100 73 298 0.0 2.0 0.00 0.00 0.00 87 1021.5
20260902114541 73 324 0.0 1.0 0.00 0.00 0.00 88 1021.3
20260902113051 72 0 0.0 0.0 0.00 0.00 0.00 89 1021.2
20260902111555 72 0 0.0 0.0 0.00 0.00 0.00 90 1020.9
20260902110047 72 0 0.0 0.0 0.00 0.00 0.00 89 1021.1
20260902104542 72 0 0.0 0.0 0.00 0.00 0.00 89 1021.0
20260902103043 72 0 0.0 0.0 0.00 0.00 0.00 90 1020.9
20260902101546 71 0 0.0 0.0 0.00 0.00 0.00 91 1020.8
20260902100101 71 0 0.0 0.0 0.00 0.00 0.00 91 1021.0
20260902094541 71 0 0.0 2.0 0.00 0.00 0.00 91 1020.9
20260902093050 72 0 0.0 0.0 0.00 0.00 0.00 90 1020.9
20260902091550 72 0 0.0 2.0 0.00 0.00 0.00 91 1020.8
20260902090040 72 0 0.0 0.0 0.00 0.00 0.00 91 1020.6
20260902084548 72 0 0.0 0.0 0.00 0.00 0.00 91 1020.6
20260902083045 72 0 0.0 0.0 0.00 0.00 0.00 90 1020.6
20260902081542 73 0 0.0 0.0 0.00 0.00 0.00 90 1020.5
20260902080054 73 0 0.0 0.0 0.00 0.00 0.00 90 1020.4
20260902074553 73 0 0.0 0.0 0.00 0.00 0.00 90 1020.5
20260902073044 73 0 0.0 0.0 0.00 0.00 0.00 89 1020.5
20260902071541 74 0 0.0 0.0 0.00 0.00 0.00 88 1020.6
20260902070052 74 0 0.0 0.0 0.00 0.00 0.00 90 1020.6